| time (UTC) | temp F | wind direction | speed MPH | gust MPH | rain 1hr in | rain 24hr in | rain mn in | humidity % | barometer mb |
| 20260506133656 | 51 | 103 | 0.0 | 0.0 | 0.00 | 0.01 | 0.00 | 91 | 1018.9 |
| 20260506132620 | 51 | 103 | 0.0 | 0.0 | 0.00 | 0.03 | 0.00 | 92 | 1018.8 |
| 20260506131621 | 51 | 102 | 0.0 | 0.0 | 0.00 | 0.04 | 0.00 | 91 | 1018.7 |
| 20260506124336 | 52 | 103 | 0.0 | 0.0 | 0.00 | 0.08 | 0.00 | 90 | 1018.5 |
| 20260506122221 | 51 | 103 | 0.0 | 0.0 | 0.00 | 0.08 | 0.00 | 91 | 1018.4 |
| 20260506121228 | 51 | 103 | 0.0 | 0.0 | 0.00 | 0.11 | 0.00 | 90 | 1018.4 |
| 20260506120241 | 51 | 103 | 0.0 | 0.0 | 0.00 | 0.18 | 0.00 | 90 | 1018.5 |
| 20260506115231 | 52 | 103 | 0.0 | 0.0 | 0.00 | 0.24 | 0.00 | 89 | 1018.5 |
| 20260506114254 | 52 | 103 | 0.0 | 0.0 | 0.00 | 0.24 | 0.00 | 89 | 1018.4 |
| 20260506112123 | 52 | 103 | 0.0 | 0.0 | 0.00 | 0.25 | 0.00 | 89 | 1018.3 |
| 20260506104815 | 53 | 103 | 0.0 | 0.0 | 0.00 | 0.26 | 0.00 | 89 | 1018.3 |
| 20260506103803 | 53 | 103 | 0.0 | 0.0 | 0.00 | 0.26 | 0.00 | 89 | 1018.3 |
| 20260506102824 | 53 | 103 | 0.0 | 0.0 | 0.00 | 0.26 | 0.00 | 89 | 1018.2 |
| 20260506095559 | 53 | 103 | 0.0 | 0.0 | 0.00 | 0.26 | 0.00 | 87 | 1018.1 |
| 20260506094620 | 54 | 102 | 0.0 | 0.0 | 0.00 | 0.26 | 0.00 | 87 | 1018.1 |
| 20260506092446 | 54 | 103 | 0.0 | 0.0 | 0.00 | 0.27 | 0.00 | 87 | 1018.2 |
| 20260506090315 | 54 | 103 | 0.0 | 0.0 | 0.00 | 0.27 | 0.00 | 87 | 1018.4 |
| 20260506085308 | 54 | 103 | 0.0 | 0.0 | 0.00 | 0.27 | 0.00 | 87 | 1018.5 |
| 20260506084305 | 54 | 103 | 0.0 | 0.0 | 0.00 | 0.27 | 0.00 | 87 | 1018.5 |
| 20260506083319 | 54 | 103 | 0.0 | 0.0 | 0.00 | 0.27 | 0.00 | 86 | 1018.6 |
| 20260506082339 | 55 | 103 | 0.0 | 0.0 | 0.00 | 0.27 | 0.00 | 85 | 1018.7 |
| 20260506072935 | 56 | 103 | 0.0 | 0.0 | 0.00 | 0.27 | 0.00 | 83 | 1018.9 |
| 20260506071930 | 57 | 103 | 0.0 | 0.0 | 0.00 | 0.27 | 0.00 | 83 | 1019.0 |
| 20260506070942 | 57 | 103 | 0.0 | 0.0 | 0.00 | 0.27 | 0.00 | 83 | 1018.9 |
| 20260506061657 | 57 | 103 | 0.0 | 0.0 | 0.00 | 0.27 | 0.27 | 84 | 1018.5 |
| 20260506051019 | 58 | 103 | 0.0 | 0.0 | 0.00 | 0.27 | 0.27 | 79 | 1018.4 |
| 20260506044959 | 59 | 103 | 0.0 | 0.0 | 0.00 | 0.27 | 0.27 | 79 | 1018.3 |
| 20260506042844 | 59 | 103 | 0.0 | 0.0 | 0.00 | 0.27 | 0.27 | 78 | 1018.0 |
| 20260506041831 | 59 | 103 | 0.0 | 0.0 | 0.00 | 0.27 | 0.27 | 78 | 1018.0 |
| 20260506040816 | 59 | 103 | 0.0 | 0.0 | 0.00 | 0.27 | 0.27 | 77 | 1017.9 |
| 20260506035834 | 60 | 103 | 0.0 | 0.0 | 0.00 | 0.27 | 0.27 | 76 | 1017.7 |
| 20260506033655 | 60 | 103 | 0.0 | 0.0 | 0.00 | 0.27 | 0.27 | 75 | 1017.4 |
| 20260506031508 | 61 | 103 | 0.0 | 0.0 | 0.00 | 0.27 | 0.27 | 74 | 1017.1 |
| 20260506030507 | 61 | 103 | 0.0 | 0.0 | 0.00 | 0.27 | 0.27 | 73 | 1017.1 |
| 20260506025454 | 61 | 103 | 0.0 | 0.0 | 0.00 | 0.27 | 0.27 | 72 | 1016.9 |
| 20260506023304 | 62 | 159 | 0.0 | 1.0 | 0.00 | 0.27 | 0.27 | 71 | 1016.7 |
| 20260506022252 | 62 | 101 | 0.0 | 0.0 | 0.00 | 0.27 | 0.27 | 70 | 1016.7 |
| 20260506021239 | 63 | 114 | 0.0 | 0.0 | 0.00 | 0.27 | 0.27 | 69 | 1016.5 |
| 20260506020225 | 64 | 113 | 0.0 | 0.0 | 0.00 | 0.27 | 0.27 | 67 | 1016.4 |
| 20260506015242 | 64 | 109 | 0.0 | 1.0 | 0.00 | 0.27 | 0.27 | 66 | 1016.3 |
| 20260506014304 | 65 | 157 | 0.0 | 1.0 | 0.00 | 0.27 | 0.27 | 65 | 1016.2 |
| 20260506012151 | 65 | 120 | 0.0 | 0.0 | 0.00 | 0.27 | 0.27 | 65 | 1016.1 |
| 20260506011129 | 64 | 115 | 0.0 | 0.0 | 0.00 | 0.27 | 0.27 | 65 | 1015.8 |
| 20260506010059 | 65 | 148 | 0.0 | 0.0 | 0.00 | 0.27 | 0.27 | 63 | 1016.0 |
| 20260506005055 | 65 | 130 | 0.0 | 0.0 | 0.00 | 0.27 | 0.27 | 62 | 1016.1 |
| 20260506004043 | 65 | 161 | 0.0 | 0.0 | 0.00 | 0.27 | 0.27 | 63 | 1016.0 |
| 20260506003037 | 66 | 98 | 0.0 | 0.0 | 0.00 | 0.27 | 0.27 | 63 | 1015.9 |
| 20260506002027 | 66 | 84 | 0.0 | 0.0 | 0.00 | 0.27 | 0.27 | 63 | 1016.0 |
| 20260506001019 | 67 | 132 | 0.0 | 1.0 | 0.00 | 0.27 | 0.27 | 61 | 1015.9 |
| 20260505234853 | 68 | 75 | 0.0 | 0.0 | 0.00 | 0.27 | 0.27 | 60 | 1015.9 |
| 20260505233847 | 68 | 148 | 0.0 | 0.0 | 0.00 | 0.27 | 0.27 | 60 | 1015.9 |
| 20260505232844 | 67 | 102 | 0.0 | 0.0 | 0.00 | 0.27 | 0.27 | 60 | 1015.9 |
| 20260505231854 | 67 | 117 | 0.0 | 0.0 | 0.00 | 0.27 | 0.27 | 63 | 1015.9 |
| 20260505230912 | 67 | 114 | 0.0 | 6.0 | 0.00 | 0.27 | 0.27 | 62 | 1015.9 |
| 20260505225901 | 68 | 90 | 0.0 | 1.0 | 0.00 | 0.27 | 0.27 | 60 | 1016.0 |
| 20260505224849 | 68 | 57 | 0.0 | 5.0 | 0.00 | 0.27 | 0.27 | 60 | 1016.0 |
| 20260505223822 | 68 | 115 | 0.0 | 4.0 | 0.00 | 0.27 | 0.27 | 60 | 1016.0 |
| 20260505222807 | 68 | 117 | 0.0 | 0.0 | 0.00 | 0.27 | 0.27 | 57 | 1016.1 |
| 20260505221743 | 68 | 120 | 0.0 | 0.0 | 0.00 | 0.27 | 0.27 | 59 | 1016.2 |
| 20260505220735 | 68 | 115 | 0.0 | 0.0 | 0.00 | 0.27 | 0.27 | 59 | 1016.2 |
| 20260505215710 | 68 | 114 | 0.0 | 0.0 | 0.00 | 0.27 | 0.27 | 58 | 1016.3 |
| 20260505214638 | 68 | 98 | 0.0 | 3.0 | 0.00 | 0.27 | 0.27 | 58 | 1016.3 |
| 20260505213611 | 68 | 82 | 0.0 | 4.0 | 0.00 | 0.27 | 0.27 | 61 | 1016.4 |
| 20260505212541 | 68 | 115 | 0.0 | 0.0 | 0.00 | 0.27 | 0.27 | 55 | 1016.4 |
| 20260505211547 | 68 | 134 | 0.0 | 4.0 | 0.00 | 0.27 | 0.27 | 57 | 1016.5 |
| 20260505210538 | 68 | 122 | 0.0 | 0.0 | 0.00 | 0.27 | 0.27 | 57 | 1016.6 |
| 20260505205553 | 68 | 88 | 0.0 | 0.0 | 0.00 | 0.27 | 0.27 | 58 | 1016.6 |
| 20260505204611 | 67 | 135 | 0.0 | 0.0 | 0.00 | 0.27 | 0.27 | 60 | 1016.7 |
| 20260505203622 | 67 | 67 | 0.0 | 6.0 | 0.00 | 0.27 | 0.27 | 61 | 1016.6 |
| 20260505201454 | 68 | 105 | 0.0 | 0.0 | 0.00 | 0.27 | 0.27 | 63 | 1016.6 |
| 20260505200514 | 67 | 69 | 0.0 | 4.0 | 0.00 | 0.27 | 0.27 | 65 | 1016.6 |
| 20260505194308 | 67 | 102 | 0.0 | 0.0 | 0.00 | 0.27 | 0.27 | 64 | 1016.6 |
| 20260505190923 | 66 | 157 | 0.0 | 3.0 | 0.00 | 0.27 | 0.27 | 59 | 1016.7 |
| 20260505185855 | 66 | 126 | 0.0 | 0.0 | 0.00 | 0.27 | 0.27 | 62 | 1016.8 |
| 20260505181444 | 65 | 156 | 0.0 | 2.0 | 0.00 | 0.27 | 0.27 | 67 | 1016.9 |
| 20260505180436 | 65 | 170 | 0.0 | 0.0 | 0.00 | 0.27 | 0.27 | 67 | 1016.8 |
| 20260505175430 | 64 | 114 | 0.0 | 9.0 | 0.00 | 0.27 | 0.27 | 67 | 1016.6 |
| 20260505174433 | 64 | 107 | 0.0 | 0.0 | 0.00 | 0.26 | 0.27 | 68 | 1016.6 |
| 20260505173433 | 63 | 170 | 0.0 | 0.0 | 0.00 | 0.26 | 0.27 | 70 | 1016.5 |
| 20260505172456 | 63 | 132 | 0.0 | 0.0 | 0.00 | 0.26 | 0.27 | 73 | 1016.4 |
| 20260505171433 | 61 | 158 | 0.0 | 0.0 | 0.00 | 0.26 | 0.27 | 78 | 1016.4 |
| 20260505170433 | 60 | 109 | 0.0 | 0.0 | 0.00 | 0.26 | 0.27 | 81 | 1016.3 |
| 20260505165415 | 60 | 181 | 0.0 | 0.0 | 0.00 | 0.26 | 0.27 | 84 | 1016.1 |
| 20260505163240 | 59 | 116 | 0.0 | 0.0 | 0.00 | 0.26 | 0.27 | 88 | 1015.9 |
| 20260505162305 | 58 | 157 | 0.0 | 3.0 | 0.00 | 0.26 | 0.27 | 90 | 1015.8 |
| 20260505161226 | 59 | 152 | 0.0 | 0.0 | 0.00 | 0.26 | 0.27 | 91 | 1015.7 |
| 20260505160242 | 59 | 134 | 0.0 | 0.0 | 0.00 | 0.26 | 0.27 | 92 | 1015.6 |
| 20260505150927 | 58 | 220 | 0.0 | 0.0 | 0.00 | 0.26 | 0.27 | 93 | 1015.5 |